FW3692 Weather Reports


Display with metric or nautical units.
time (UTC)temp
F
wind
direction
speed
MPH
gust
MPH
rain 1hr
in
rain 24hr
in
rain mn
in
humidity
%
barometer
mb
20190319053008 60 239 1.0 5.0 0.00 0.00 0.00 47 994.4
20190319050007 59 267 0.0 0.0 0.00 0.00 0.00 50 994.2
20190319040007 62 248 0.0 0.0 0.00 0.00 0.00 46 993.9
20190319033006 64 246 0.0 0.0 0.00 0.00 0.00 42 993.8
20190319023006 70 258 0.0 0.0 0.00 0.00 0.00 37 993.5
20190319020007 74 257 0.0 0.0 0.00 0.00 0.00 33 993.3
20190319013006 78 336 0.0 0.0 0.00 0.00 0.00 26 993.1
20190318233007 84 307 2.0 5.0 0.00 0.00 0.00 23 993.2
20190318223007 84 47 1.0 3.0 0.00 0.00 0.00 26 993.7
20190318220006 83 42 2.0 10.0 0.00 0.00 0.00 25 993.9
20190318213006 82 289 0.0 3.0 0.00 0.00 0.00 27 994.3
20190318203006 82 245 0.0 8.0 0.00 0.00 0.00 28 995.2
20190318200006 81 313 1.0 10.0 0.00 0.00 0.00 27 995.8
20190318193006 81 293 1.0 6.0 0.00 0.00 0.00 30 996.3
20190318190006 80 306 2.0 9.0 0.00 0.00 0.00 28 996.6
20190318183006 80 270 2.0 10.0 0.00 0.00 0.00 30 996.8
20190318180007 79 292 4.0 12.0 0.00 0.00 0.00 31 997.1
20190318173007 77 233 0.0 7.0 0.00 0.00 0.00 34 997.4
20190318170006 74 9 0.0 3.0 0.00 0.00 0.00 35 997.5
20190318163006 72 135 0.0 0.0 0.00 0.00 0.00 39 997.6
20190318160007 70 88 0.0 0.0 0.00 0.00 0.00 42 997.4
20190318153007 67 125 0.0 1.0 0.00 0.00 0.00 46 997.3
20190318150006 61 191 0.0 0.0 0.00 0.00 0.00 55 997.0
20190318133007 50 207 0.0 1.0 0.00 0.00 0.00 72 996.1
20190318123006 50 211 0.0 0.0 0.00 0.00 0.00 72 995.7
20190318120006 50 208 0.0 0.0 0.00 0.00 0.00 70 995.3
20190318113007 52 205 0.0 0.0 0.00 0.00 0.00 66 995.2
20190318110006 53 208 0.0 0.0 0.00 0.00 0.00 64 995.1
20190318103006 54 211 0.0 0.0 0.00 0.00 0.00 62 995.1
20190318100006 56 207 0.0 0.0 0.00 0.00 0.00 58 995.2
20190318093006 58 205 0.0 7.0 0.00 0.00 0.00 55 995.4
20190318090007 58 202 2.0 7.0 0.00 0.00 0.00 55 995.6
20190318063006 59 266 0.0 0.0 0.00 0.00 0.00 55 995.6
20190318060006 59 254 0.0 0.0 0.00 0.00 0.00 53 995.7